www.pogodaiklimat.ru
ПОГОДА в Джоплине
Время
и дата
22:53 04.02
23:53 04.02
00:53 05.02
01:53 05.02
02:53 05.02
03:53 05.02
04:53 05.02
05:53 05.02
06:53 05.02
07:53 05.02
08:53 05.02
09:53 05.02
10:53 05.02
11:53 05.02
12:53 05.02
13:53 05.02
14:53 05.02
15:53 05.02
16:53 05.02
17:53 05.02
18:53 05.02
19:53 05.02
20:53 05.02
21:53 05.02
22:53 05.02
23:53 05.02
00:53 06.02
01:53 06.02
02:53 06.02
03:53 06.02
04:53 06.02
05:53 06.02
06:53 06.02
07:53 06.02
08:53 06.02
09:35 06.02
09:53 06.02
10:53 06.02
11:53 06.02
12:53 06.02
13:53 06.02
14:53 06.02
15:53 06.02
16:53 06.02
17:53 06.02
18:53 06.02
19:53 06.02
20:53 06.02
Ветер
(напр.,м/с)
Видим. Явления Облачность Т
(С)
Тd
(С)
f
(%)
Тe
(С)
Тes
(С)
Комфортность P
(гПа)
Po
(гПа)
Тmin
(С)
Tmax
(С)
R
(мм)
R24
(мм)
S
(см)
ЮЗ 10
{15}
16 км ясно +9.4 +2.8 63 +5 +5 1017.6 981.9
ЮЗ 11
{16}
16 км ясно +8.9 +3.3 68 +4 +4 1017.6 981.9 +7.8 +10.0
ЮЗ 8
{13}
16 км ясно +8.9 +3.3 68 +5 +5 1017.7 981.9
ЮЗ 9
{14}
16 км ясно +7.8 +3.3 73 +3 +3 1017.7 981.9
ЮЗ 7
{10}
16 км ясно +6.7 +3.3 79 +2 +2 1018.4 982.6
ЮЗ 6 16 км ясно +5.6 +2.8 82 +1 +1 1018.4 982.9
З 5 16 км ясно +4.4 +2.2 86 -1 -1 1019.4 983.6
нст 2 16 км ясно +2.2 +0.6 89 -1 -1 1019.7 983.9 +2.2 +8.9
ЮЗ 3 16 км ясно +1.1 0.0 92 -3 -3 1020.7 984.5
ЮЗ 3 11 км ясно +1.1 0.0 92 -3 -3 1021.6 985.5
ЮЗ 2 16 км ясно +4.4 +0.6 76 +2 +2 1021.4 985.5
ЮЗ 3 16 км ясно +7.2 +0.6 63 +5 +7 1021.9 985.8
ЮЗ 2 16 км ясно +9.4 0.0 52 +8 +13 1021.9 986.2
штиль 0 16 км ясно +12.2 +0.6 45 +12 +21 1021.2 985.5 +0.6 +12.2
Ю 2 16 км ясно +14.4 -0.6 36 +14 +22 1020.4 984.9
нст 2 16 км ясно +16.1 -0.6 32 +16 +24 1019.8 984.2
нст 2 14 км ясно +16.1 -0.6 32 +16 +22 1019.6 983.9
нст 2 16 км ясно +17.2 -1.1 29 +18 +21 1019.6 984.2
ЮЗ 2 16 км ясно +16.1 -1.1 31 +16 +18 1019.5 983.9
штиль 0 16 км ясно +13.9 -1.7 34 +14 +14 1019.6 983.6 +12.2 +17.2
штиль 0 16 км ясно +9.4 -1.7 46 +9 +9 1019.8 983.9
В 2 16 км ясно +7.2 -1.7 53 +6 +6 1019.7 983.6
В 2 16 км ясно +6.1 -1.7 57 +4 +4 1019.6 983.6
В 3 16 км ясно +5.6 -1.7 59 +3 +3 1018.9 982.9
ЮВ 3 16 км ясно +7.2 -1.7 53 +5 +5 1019.0 983.2
ЮВ 3 16 км ясно +6.1 -2.2 55 +3 +3 1018.8 983.2 +3.9 +13.9
ЮВ 4 16 км ясно +6.1 -2.2 55 +3 +3 1018.0 982.2
ЮВ 5 16 км ясно +6.7 -1.7 55 +3 +3 1017.3 981.9
ЮВ 4 16 км ясно +7.2 -1.1 56 +4 +4 1017.1 981.6
ЮВ 5 16 км ясно +7.2 -0.6 58 +4 +4 1016.2 980.9
ЮВ 5 16 км ясно +7.8 +0.6 60 +4 +4 1015.4 980.0
ЮВ 5 16 км ясно +8.3 +1.7 63 +5 +5 1015.0 979.6 +5.6 +8.3
ЮВ 5 16 км ясно +8.3 +3.3 71 +5 +5 1014.5 979.0
Ю 6 16 км 5/0 3600 m
[Ac]
+10.0 +5.6 74 +7 +7 1014.0 978.3
Ю 9
{13}
16 км 5/0 3300 m
[Ac]
+13.3 +7.8 69 +10 +10 1013.5 978.0
Ю 9
{15}
16 км ясно +14.4 +8.9 70 +12 +12 977.7
Ю 9
{13}
16 км 5/0 3600 m
[Ac]
+15.0 +8.9 67 +13 +13 1012.6 977.3
Ю 11
{15}
16 км ясно +17.2 +9.4 60 +16 +16 1012.0 976.7
Ю 12
{19}
16 км 5/0 3600 m
[Ac]
+18.9 +10.0 56 +18 +18 1010.4 975.4 +8.3 +20.0
Ю 10
{17}
16 км ясно +20.0 +10.0 53 +21 +21 комфорт 1008.4 973.4
Ю 11
{21}
16 км 8/5 900 m
[Ac]
+21.1 +10.0 49 +23 +23 комфорт 1007.7 972.8
Ю 15
{22}
16 км 5/2 1200 m
[Ac]
+20.0 +10.0 53 +20 +20 1006.9 972.1
Ю 13
{20}
16 км 5/5 1290 m
[Ac]
+19.4 +10.0 55 +19 +19 1007.8 972.8
Ю 12
{17}
16 км 8/8 1080 м +17.2 +9.4 60 +15 +15 1008.7 973.7
Ю 9
{14}
16 км 8/8 1110 м +16.7 +9.4 62 +15 +15 1009.5 974.4 +16.7 +21.7
Ю 8
{12}
16 км 10/10 1170 м +16.1 +10.0 67 +14 +14 1010.7 975.4
Ю 9 16 км 10/10 1320 м +16.1 +10.0 67 +14 +14 1011.0 976.0
Ю 6
{11}
16 км 2/2 1350 м +15.6 +10.6 72 +14 +14 1011.6 976.7
Местоположение метеостанции Joplin Regional Airport: широта 37.1561 долгота -94.5006 высота над уровнем моря 299 м.
В архиве по умолчанию представлена погода в Джоплине за последние 1-2 суток. Обновление информации о фактической погоде в базе происходит ежечасно! Архивные данные за месяц целиком и за предыдущие месяцы Вы можете получить, выбрав интересующий диапазон дат из раскрывающегося списка и нажав кнопку "Ввод!".
Внимание! Архив погоды МЕТАР в базе сайта по станциям, не включенным в климатический монитор, хранится не более 60 дней. Нет смысла пытаться выбрать более раннюю дату.
*Определитесь, кто Вы:
Внимание! Время в таблицах - местное (без учета летнего времени). Для получения всемирного времени необходимо вычесть поправку, которая равна -6 ч.
Смотрите также архив погоды в соседних городах и на ближайших метеорологических станциях:
Партнеры нашего сайта:      
Пояснения к столбцам:
  • Ветер - указаны скорость ветра в м/с - средняя за 10 мин, порывы в срок и между сроками (в фигурных скобках) и направление, откуда дует ветер: С - северный,
  • СВ - северо-восточный, В - восточный, ЮВ - юго-восточный, Ю - южный, ЮЗ - юго-западный, З - западный, СЗ - северо-западный.
  • Видимость - горизонтальная дальность видимости в метрах или километрах. При видимости от 1 до 10 км при отсутствии осадков обычно наблюдается дымка, при ухудшении видимости до 1 км и менее - туман. В сухую погоду видимость может ухудшаться дымом, пылью или мглою.
  • Явления - указаны атмосферные явления, наблюдавшиеся в срок или в последний час перед сроком; фигурными скобками обозначены явления, наблюдавшиеся между сроками (за 1-3 часа до срока); квадратными скобками обозначены град или гололедные отложения с указанием их диаметра в мм.
  • Облачность - указаны через наклонную черту общая и нижняя облачность в баллах и высота нижней границы облаков в метрах; квадратными скобками обозначены формы облаков: Ci - перистые, Cs - перисто-слоистые, Cc - перисто-кучевые, Ac - высококучевые, As - высокослоистые, Sc - слоисто-кучевые, Ns - слоисто-дождевые, Cu - кучевые, Cb - кучево-дождевые. Подробнее классификацию облаков см. в Атласе облаков (PDF).
  • T - Температура воздуха - температура, измеренная на высоте 2 м над землей.
  • Td - Температура точки росы - температура, при понижении до которой содержащийся в воздухе водяной пар достигнет насыщения.
  • f - Относительная влажность воздуха - влажноcть воздуха, измеренная на высоте 2 м над землей.
  • Te - Эффективная температура - температура, которую ощущает одетый по сезону человек в тени. Характеристика душности погоды. При расчете учитывается влияние влажности воздуха и скорости ветра на теплоощущения человека.
  • Tes - Эффективная температура на солнце - температура, которую ощущает человек, с поправкой на солнечный нагрев. Характеристика знойности погоды. Зависит от высоты солнца над горизонтом, облачности и скорости ветра. Ночью, в пасмурную погоду, а также при ветре 12 м/с и более поправка равна нулю.
  • P - Атмосферное давление - приведенное к уровню моря атмосферное давление.
  • Po - Атмосферное давление - измеренное на уровне метеостанции атмосферное давление.
  • Tmin - Минимальная температура - минимум температуры воздуха на высоте 2 м над землей.
  • Tmax - Максимальная температура - максимум температуры воздуха на высоте 2 м над землей.
  • R - Количество осадков - Количество выпавших осадков за период времени, мм. При наведении курсора мыши на число - период времени, за который выпало указанное количество осадков.
  • R24 - Количество осадков - Количество выпавших осадков за 24 часа, мм.
  • S - Снежный покров - Высота снежного покрова, см. При наведении курсора мыши на число - состояние снежного покрова и степень покрытия местности в баллах.